Nassau, Bahamas

9:43 PM EDT on August 23, 2016 (GMT -0400)
Nassau International

Weather History for MYNN - January, 2013

Change the Weather History Date:

Tuesday, January 1, 2013

  Actual Average Record
Temperature  
Mean Temperature 73 °F -  
Max Temperature 78 °F 77 °F 84 °F (2003)
Min Temperature 68 °F 62 °F 51 °F (2001)
Cooling Degree Days 8    
Growing Degree Days 23 (Base 50)    
Moisture  
Dew Point 61 °F    
Average Humidity 67    
Maximum Humidity 83    
Minimum Humidity 51    
Precipitation  
Precipitation 0.00 in 0.06 in - ()
Sea Level Pressure  
Sea Level Pressure 30.15 in    
Wind  
Wind Speed 5 mph ()    
Max Wind Speed 15 mph    
Max Gust Speed -    
Visibility 6.6 miles    
Events      
Averages and records for this station are not official NWS values.
T = Trace of Precipitation, MM = Missing Value Source: Averaged Metar Reports

Daily Weather History Graph

Daily Weather History Graph

Search for Another Location

Airport or City:

Trip Planner

Search our weather history database for the weather conditions in past years. The results will help you decide how hot, cold, wet, or windy it might be!

Date:

Astronomy

Jan. 01, 2013 Rise Set
Actual Time 6:55 AM EST 5:32 PM EST
Civil Twilight 6:30 AM EST 5:57 PM EST
Nautical Twilight 6:01 AM EST 6:25 PM EST
Astronomical Twilight 5:33 AM EST 6:53 PM EST
Moon 9:32 PM EST (1/1) 9:32 AM EST (1/1)
Length of Visible Light 11h 27m
Length of Day
10h 37m
Waning Gibbous, 83% of the Moon is Illuminated
Jan 1
Waning Gibbous
Jan 4
Last Quarter
Jan 11
New
Jan 18
First Quarter
Jan 26
Full

Hourly Weather History & Observations

Time (EST) Temp. Dew Point Humidity Pressure Visibility Wind Dir Wind Speed Gust Speed Precip Events Conditions
1:00 AM 68.0 °F 59.0 °F 73% 30.19 in 6.2 mi ENE 1.2 mph - N/A   Mostly Cloudy
2:00 AM 69.8 °F 59.0 °F 68% 30.18 in 6.2 mi East 9.2 mph - N/A   Mostly Cloudy
3:00 AM 69.8 °F 60.8 °F 73% 30.12 in 6.2 mi Calm Calm - N/A   Mostly Cloudy
4:00 AM 68 °F 59 °F 64% 30.18 in 9 mi ENE 3.5 mph - -   Mostly Cloudy
4:00 AM 68.0 °F 59.0 °F 73% 30.12 in 6.2 mi ENE 3.5 mph - N/A   Mostly Cloudy
5:00 AM 69.8 °F 59.0 °F 68% 30.18 in 6.2 mi ENE 1.2 mph - N/A   Mostly Cloudy
6:00 AM 69.8 °F 60.8 °F 73% 30.19 in 6.2 mi ENE 3.5 mph - N/A   Mostly Cloudy
6:59 AM - - N/A% - - North - - N/A   Unknown
7:00 AM 69.8 °F 60.8 °F 73% 30.19 in 6.2 mi NE 5.8 mph - N/A   Mostly Cloudy
8:00 AM 71.6 °F 59.0 °F 64% 30.18 in 6.2 mi East 3.5 mph - N/A   Mostly Cloudy
9:00 AM 73.4 °F 60.8 °F 65% 30.19 in 6.2 mi East 4.6 mph - N/A   Scattered Clouds
10:00 AM 76 °F 63 °F 54% 30.21 in 9 mi East 8.1 mph - -   Mostly Cloudy
10:00 AM 75.2 °F 62.6 °F 65% 30.20 in 6.2 mi East 8.1 mph - N/A   Mostly Cloudy
11:00 AM 75.2 °F 60.8 °F 61% 30.19 in 6.2 mi East 11.5 mph - N/A   Mostly Cloudy
12:00 PM 75.2 °F 62.6 °F 65% 30.17 in 6.2 mi East 11.5 mph - N/A   Mostly Cloudy
1:00 PM 78 °F 63 °F 51% 30.12 in 9 mi ESE 11.5 mph - -   Mostly Cloudy
1:00 PM 77.0 °F 62.6 °F 61% 30.12 in 6.2 mi ESE 11.5 mph - N/A   Mostly Cloudy
2:00 PM 77.0 °F 59.0 °F 54% 30.09 in 6.2 mi ESE 15.0 mph - N/A   Partly Cloudy
3:00 PM 75.2 °F 60.8 °F 61% 30.09 in 6.2 mi East 11.5 mph - N/A   Partly Cloudy
8:00 PM 69.8 °F 62.6 °F 78% 30.10 in 6.2 mi Calm Calm - N/A   Partly Cloudy
9:00 PM 68.0 °F 62.6 °F 83% 30.10 in 6.2 mi Calm Calm - N/A   Scattered Clouds
10:00 PM 68.0 °F 60.8 °F 78% 30.10 in 6.2 mi Calm Calm - N/A   Mostly Cloudy